Location: Black Swamp Observatory
(41.3920°N, 84.1250°W)
Time: 05:34:11
(UTC-04:00)

Courier 1B Rocket - Pass Details

Date: 19 January 2022
Orbit: 920 x 1202 km, 28.2° (Epoch: 28 May)

Event Time Altitude Azimuth Distance (km) Brightness Sun altitude
Exits shadow 04:12:21 14° 134° (SE) 2,412 7.3 -42.0°
Drops below altitude 10° 04:13:39 10° 123° (ESE) 2,670 7.7 -41.8°
Sets 04:17:02 0° 106° (ESE) 3,583 8.7 -41.2°
